Wind_Speed
9 8 8 8 8 8 8 8 9 9 9 11 12 13 15 16 18 20 22 24 27 29 31 34 37 39 42 44 47 49 50 51 53 55 58 61 64 67 71 75 80 86 91 93
9 8 8 7 7 7 7 7 7 8 9 11 12 13 15 17 19 21 24 26 28 31 33 35 39 42 44 47 49 51 52 53 54 56 59 62 65 68 72 77 82 87 91 90
9 8 7 7 7 6 6 6 7 7 8 10 11 13 15 17 19 22 25 28 30 33 36 38 41 44 47 49 52 54 55 55 56 58 60 63 66 69 73 78 84 88 89 87
9 8 7 7 7 7 6 6 6 7 8 8 10 11 14 16 19 22 25 28 31 34 37 40 43 46 48 51 55 57 58 59 59 60 62 64 68 70 74 79 84 87 87 84
10 10 9 8 8 7 6 6 6 7 8 9 11 12 14 17 19 22 25 28 32 35 38 42 45 47 50 53 56 60 62 62 62 62 64 66 69 72 75 80 84 86 85 81
12 11 10 10 9 9 9 8 8 8 9 10 12 14 16 18 21 23 26 29 32 35 39 43 46 49 52 55 58 61 64 66 65 65 66 68 70 72 76 80 84 85 83 78
14 13 13 12 12 11 11 11 10 11 12 12 14 15 17 20 22 25 27 30 32 36 40 43 47 50 53 56 59 62 66 68 69 68 68 69 71 73 77 80 83 83 81 76
17 15 15 15 14 14 13 13 13 14 14 15 16 17 18 20 22 25 28 31 34 37 40 44 47 51 54 57 60 63 67 70 71 71 70 71 72 74 77 80 82 82 80 75
19 18 17 17 17 16 16 16 16 17 17 17 18 19 19 21 24 26 29 31 34 37 40 44 48 52 55 58 61 64 67 71 73 73 72 72 73 75 77 80 81 81 78 74
21 21 19 20 20 19 19 19 19 19 20 21 21 22 24 24 27 30 32 34 36 39 42 45 49 53 56 59 62 65 67 71 74 75 74 73 74 75 77 80 80 80 77 73
23 23 22 22 22 22 22 21 22 23 24 25 25 24 26 27 29 32 35 37 40 42 45 47 50 53 57 60 62 65 68 71 74 76 75 75 74 75 77 79 80 79 76 73
25 25 25 24 24 25 25 24 25 26 26 27 29 26 28 30 31 33 35 38 41 44 46 48 51 54 57 60 63 65 68 71 74 76 77 76 75 75 77 78 79 78 75 72
26 27 27 27 27 27 27 26 28 29 30 30 31 29 31 33 34 35 37 39 42 45 48 49 52 54 57 60 63 65 67 70 73 76 78 76 75 75 76 78 79 78 74 71
29 29 29 30 31 30 29 29 30 33 33 34 32 31 31 36 37 39 41 43 45 47 49 51 53 54 57 60 63 65 67 70 73 75 78 77 76 75 76 77 78 77 74 70
31 30 30 32 33 35 33 31 32 34 34 37 35 34 33 37 38 39 42 44 46 48 51 53 54 55 56 60 63 65 67 69 72 75 77 78 76 75 75 76 77 76 74 70
34 33 33 33 35 38 36 32 34 36 36 37 38 37 36 40 39 40 42 45 46 49 51 53 54 55 56 59 62 64 67 69 71 74 76 77 76 75 74 75 76 75 73 69
36 36 37 36 37 40 38 33 35 38 38 39 40 39 40 41 41 41 44 46 48 49 52 54 55 56 56 58 61 64 66 68 70 72 75 77 77 75 74 74 75 75 73 69
37 38 39 40 40 42 37 36 37 40 40 41 42 42 43 44 43 43 46 48 49 51 53 55 56 56 56 58 61 63 66 67 69 71 74 76 76 75 73 73 74 74 72 69
39 39 41 43 44 44 38 37 39 42 42 42 44 44 45 46 46 44 47 49 51 52 54 55 56 56 56 57 60 63 65 66 68 70 72 74 75 74 72 72 73 73 72 69
41 41 43 45 47 47 42 39 40 42 44 44 46 46 47 48 49 48 49 51 52 53 54 55 56 55 56 57 59 62 64 66 67 68 70 73 74 73 72 71 71 72 71 69
44 44 45 46 49 50 44 42 42 42 43 45 48 49 50 52 52 52 52 53 54 54 54 55 56 55 55 57 59 61 64 65 66 67 69 71 73 72 71 70 70 70 70 68
50 49 48 47 50 49 44 43 41 41 43 46 49 51 53 54 53 53 53 54 54 54 54 55 55 55 56 57 59 61 63 65 66 66 67 69 71 71 70 68 68 69 69 68
56 53 52 52 51 48 46 43 40 41 44 47 50 52 54 55 55 54 54 55 54 54 54 54 55 55 56 57 59 61 63 65 66 65 65 67 69 69 68 67 66 67 67 67
61 59 59 58 54 50 48 45 43 45 48 49 51 53 54 56 56 56 56 56 55 55 55 55 56 57 57 58 60 61 63 65 65 65 64 65 67 67 67 65 64 65 65 65
64 64 64 62 58 56 53 50 50 50 51 52 53 54 55 57 58 58 58 58 58 58 58 58 58 59 59 59 60 62 63 64 64 64 62 63 64 66 65 63 63 63 64 65
66 66 67 67 63 63 61 57 57 57 56 56 57 57 57 59 60 60 61 61 62 61 61 61 61 61 61 61 61 62 63 64 63 62 61 61 62 63 63 62 61 61 62 64
Wind_Direction
323 325 331 335 335 338 342 346 349 354 356 359 360 360 1 359 358 357 356 354 353 352 352 350 347 345 343 341 338 334 331 328 326 325 325 325 325 325 325 325 325 326 326 326
315 319 326 329 329 331 335 341 349 357 358 2 3 3 3 4 2 360 358 357 355 354 353 352 350 349 347 345 343 340 336 332 330 328 327 327 327 327 327 328 328 329 329 329
307 309 314 316 316 318 324 335 345 354 360 3 2 2 2 3 2 0 358 356 355 353 352 351 350 349 348 347 346 345 341 337 334 332 330 330 330 330 330 330 331 331 332 332
297 295 298 298 299 303 311 322 334 342 349 352 355 358 358 0 1 358 356 355 353 352 350 349 349 348 348 348 348 347 345 342 338 335 334 333 333 333 332 333 333 334 335 335
286 283 283 283 284 287 293 303 314 325 331 337 341 348 354 355 356 355 354 354 353 351 350 348 348 347 347 348 348 348 348 345 342 339 337 336 335 335 335 335 336 337 338 337
280 274 273 273 273 276 281 287 297 308 318 320 332 341 344 348 350 351 352 352 352 351 349 348 348 347 347 347 347 348 348 347 345 342 340 338 338 337 337 337 339 340 340 340
276 270 266 266 267 268 275 283 290 295 302 314 326 332 336 340 343 345 347 349 350 350 350 348 348 347 347 346 347 348 348 348 347 344 342 341 340 339 339 340 341 342 343 342
275 267 263 262 263 265 269 276 282 291 302 312 317 321 327 331 337 340 342 345 347 348 349 348 348 347 347 346 347 347 348 349 348 346 344 342 341 341 341 342 343 344 345 344
277 269 262 261 260 261 265 271 278 286 294 301 307 312 318 325 331 335 339 342 343 344 346 347 347 347 347 346 346 347 348 349 349 347 346 344 343 342 342 344 345 346 347 346
277 270 263 261 260 261 263 269 276 283 289 295 302 310 317 324 327 332 336 338 339 342 344 346 346 347 346 346 346 346 347 348 349 348 347 345 344 344 344 345 347 348 348 348
276 270 264 261 261 261 264 268 274 280 287 294 300 309 313 319 325 329 332 334 336 338 341 343 344 345 346 346 345 345 346 347 349 349 348 346 345 345 345 347 349 350 350 350
276 271 266 261 260 261 263 267 273 278 284 289 296 306 308 313 319 323 326 329 332 334 337 340 342 343 345 345 345 345 346 347 348 349 349 347 346 346 346 348 350 351 352 351
275 271 268 263 260 261 263 267 272 277 283 288 294 303 305 309 314 318 321 324 328 331 334 336 338 341 343 344 344 345 345 346 347 349 349 348 347 347 347 349 351 353 353 353
275 272 268 266 265 262 262 265 272 277 283 287 292 297 301 304 310 314 318 322 325 328 330 333 335 338 340 342 343 344 344 346 347 348 349 349 348 347 348 349 352 354 355 354
276 273 269 266 265 265 264 266 271 277 283 287 292 294 299 299 306 310 313 317 321 324 327 329 332 335 338 341 342 343 344 345 346 347 349 349 348 348 348 350 352 354 356 356
276 275 271 267 265 266 267 269 273 276 280 285 288 292 295 297 303 306 309 313 317 320 323 326 329 332 335 338 341 342 343 344 345 347 348 349 348 348 349 350 352 355 356 357
276 277 275 271 267 268 270 272 272 276 280 283 287 291 291 295 299 303 305 309 313 317 320 323 326 329 332 335 339 341 342 343 344 346 347 348 348 348 349 350 352 355 357 358
275 275 276 275 273 271 274 273 272 275 278 282 285 288 291 294 298 301 303 307 311 315 318 320 323 326 329 333 337 339 341 342 343 345 347 348 348 348 349 350 352 355 357 358
274 275 276 276 276 276 276 275 275 275 278 281 284 286 289 292 295 298 301 305 308 312 315 317 320 323 326 330 334 338 340 341 342 344 345 347 347 348 348 350 352 355 357 358
272 273 274 276 277 278 281 280 278 278 280 282 283 285 287 290 293 296 299 302 306 310 312 314 317 320 324 328 332 335 338 340 341 342 344 346 347 347 348 349 351 354 357 358
270 271 272 275 277 278 284 285 284 283 284 283 284 285 287 289 292 296 298 302 305 308 310 312 314 318 321 325 329 332 336 338 339 341 342 344 346 346 347 348 350 353 356 358
270 270 271 273 274 280 283 283 284 283 282 283 283 285 287 289 292 295 297 300 302 305 307 310 312 316 319 322 326 329 333 335 337 339 340 342 344 345 346 347 350 352 356 358
269 271 271 271 273 276 278 281 281 281 280 280 281 284 286 289 292 294 296 298 300 302 305 307 310 313 316 319 323 326 330 332 334 337 338 340 343 344 345 346 348 351 354 357
270 270 270 271 273 274 275 276 276 275 276 277 279 282 284 287 290 292 294 296 298 300 302 304 307 310 313 316 319 322 326 329 331 334 336 338 341 342 343 345 347 350 353 356
269 270 271 273 274 274 273 274 273 273 274 275 277 279 282 284 287 289 291 293 295 297 299 301 304 307 309 312 315 318 322 325 328 331 333 336 338 340 342 343 346 349 352 355
270 270 272 274 275 274 274 273 274 274 275 275 276 277 278 280 283 285 287 289 292 294 297 299 301 303 306 309 311 314 318 321 324 327 330 333 336 338 340 341 344 347 350 354
Height
5883 5882 5880 5878 5877 5876 5874 5872 5870 5869 5866 5864 5862 5860 5857 5854 5851 5848 5845 5841 5837 5833 5828 5823 5817 5811 5804 5797 5790 5781 5772 5763 5754 5744 5733 5722 5710 5697 5683 5668 5651 5633 5613 5591
5882 5880 5879 5877 5876 5874 5873 5871 5869 5868 5865 5863 5860 5858 5855 5852 5849 5846 5842 5838 5834 5829 5824 5819 5812 5806 5799 5792 5784 5775 5765 5755 5745 5734 5723 5711 5698 5685 5670 5654 5636 5617 5596 5573
5879 5879 5877 5876 5875 5873 5872 5870 5868 5866 5864 5861 5859 5857 5854 5851 5847 5844 5840 5835 5831 5825 5820 5814 5808 5801 5794 5786 5777 5768 5757 5746 5735 5724 5712 5700 5687 5672 5657 5640 5621 5601 5579 5557
5877 5876 5875 5874 5873 5872 5871 5869 5867 5865 5863 5861 5859 5857 5853 5849 5845 5842 5838 5833 5828 5822 5816 5810 5803 5796 5788 5779 5770 5760 5749 5737 5726 5714 5701 5689 5675 5660 5644 5627 5608 5587 5565 5543
5875 5874 5873 5872 5872 5870 5869 5867 5865 5863 5861 5859 5856 5854 5851 5847 5844 5840 5835 5830 5825 5819 5812 5805 5798 5790 5782 5773 5763 5752 5741 5729 5716 5704 5691 5678 5663 5648 5632 5614 5595 5574 5552 5531
5872 5871 5870 5870 5869 5868 5867 5866 5864 5861 5859 5858 5854 5851 5848 5844 5840 5836 5831 5826 5821 5815 5808 5800 5793 5784 5776 5766 5756 5745 5733 5721 5707 5694 5681 5667 5653 5637 5621 5603 5583 5562 5542 5521
5869 5868 5867 5867 5866 5865 5864 5863 5862 5859 5857 5855 5851 5848 5845 5841 5836 5832 5827 5822 5816 5810 5803 5795 5787 5779 5770 5760 5749 5738 5726 5713 5699 5685 5671 5657 5643 5627 5610 5592 5573 5552 5532 5513
5865 5866 5865 5864 5863 5863 5861 5860 5859 5857 5854 5851 5848 5845 5843 5838 5833 5828 5823 5817 5811 5805 5798 5790 5782 5773 5764 5753 5742 5731 5718 5705 5691 5677 5663 5648 5633 5617 5600 5582 5563 5543 5523 5504
5861 5862 5861 5860 5859 5859 5858 5856 5855 5853 5849 5847 5844 5841 5839 5834 5829 5825 5819 5813 5807 5800 5793 5785 5776 5767 5757 5747 5736 5724 5712 5698 5684 5669 5654 5639 5624 5608 5591 5573 5554 5534 5515 5497
5857 5857 5857 5856 5855 5855 5854 5852 5851 5848 5845 5843 5840 5836 5833 5828 5823 5819 5813 5808 5802 5795 5787 5779 5770 5761 5751 5741 5730 5717 5705 5691 5677 5662 5647 5632 5616 5600 5583 5565 5546 5527 5508 5490
5852 5852 5852 5851 5851 5850 5849 5848 5845 5843 5840 5837 5833 5834 5827 5822 5817 5812 5807 5801 5795 5788 5781 5773 5765 5755 5745 5735 5723 5711 5698 5685 5671 5656 5640 5625 5609 5593 5576 5558 5540 5521 5503 5485
5846 5846 5846 5846 5845 5844 5843 5842 5840 5838 5835 5831 5827 5829 5821 5817 5812 5807 5802 5796 5789 5782 5775 5767 5758 5749 5739 5728 5717 5705 5692 5679 5664 5649 5634 5618 5602 5586 5570 5552 5534 5516 5498 5480
5841 5840 5840 5839 5840 5838 5837 5836 5833 5831 5828 5825 5821 5823 5815 5810 5805 5801 5796 5790 5784 5777 5769 5761 5752 5743 5733 5723 5711 5699 5686 5673 5659 5644 5628 5612 5597 5581 5564 5547 5529 5511 5494 5476
5834 5834 5834 5833 5831 5831 5830 5829 5827 5823 5821 5818 5816 5814 5811 5803 5798 5793 5788 5782 5776 5770 5762 5754 5746 5737 5728 5717 5706 5694 5681 5667 5653 5638 5623 5607 5592 5576 5560 5542 5525 5507 5490 5473
5827 5827 5826 5825 5823 5821 5822 5823 5820 5816 5814 5810 5809 5806 5804 5797 5793 5787 5781 5775 5769 5762 5755 5747 5739 5731 5721 5711 5700 5688 5675 5662 5648 5634 5618 5603 5587 5571 5555 5538 5521 5504 5487 5470
5820 5819 5819 5818 5816 5812 5813 5815 5812 5809 5807 5803 5800 5798 5795 5789 5786 5781 5775 5769 5763 5756 5748 5741 5732 5724 5715 5705 5694 5683 5670 5657 5643 5629 5614 5598 5582 5567 5551 5535 5518 5501 5485 5468
5812 5811 5809 5809 5808 5804 5806 5809 5804 5801 5799 5795 5791 5791 5786 5782 5778 5774 5767 5762 5755 5749 5741 5734 5725 5717 5708 5699 5689 5677 5665 5651 5638 5624 5609 5594 5578 5563 5548 5532 5516 5499 5483 5467
5804 5802 5800 5799 5798 5796 5803 5799 5796 5792 5790 5787 5783 5780 5776 5773 5769 5765 5758 5753 5747 5741 5734 5726 5718 5710 5702 5692 5682 5671 5659 5646 5633 5619 5605 5590 5575 5560 5545 5529 5513 5497 5481 5466
5795 5793 5791 5788 5786 5785 5791 5790 5785 5782 5781 5778 5774 5771 5767 5762 5760 5757 5750 5745 5739 5733 5726 5718 5710 5703 5694 5685 5675 5665 5653 5641 5628 5615 5601 5587 5572 5557 5542 5526 5511 5495 5480 5465
5785 5783 5781 5778 5775 5774 5781 5778 5774 5772 5771 5769 5764 5760 5757 5752 5749 5748 5742 5736 5730 5725 5718 5710 5702 5694 5686 5678 5668 5659 5647 5636 5623 5611 5597 5583 5569 5554 5539 5524 5509 5494 5478 5463
5774 5772 5771 5768 5764 5764 5769 5766 5762 5762 5761 5756 5752 5748 5745 5741 5738 5735 5731 5726 5720 5714 5708 5701 5693 5686 5678 5670 5661 5652 5641 5630 5618 5606 5593 5580 5566 5551 5537 5522 5508 5493 5478 5463
5761 5760 5760 5758 5754 5758 5758 5754 5752 5750 5748 5744 5739 5735 5732 5729 5726 5723 5719 5714 5709 5703 5697 5691 5684 5677 5670 5662 5654 5645 5635 5625 5613 5601 5589 5576 5563 5549 5535 5520 5506 5492 5477 5463
5747 5749 5746 5745 5747 5748 5744 5743 5741 5738 5736 5732 5727 5724 5720 5716 5713 5710 5706 5702 5697 5692 5686 5680 5674 5667 5660 5653 5646 5638 5628 5618 5608 5596 5585 5572 5560 5546 5532 5519 5505 5491 5477 5463
5733 5733 5731 5731 5734 5735 5731 5730 5728 5725 5722 5719 5716 5712 5708 5704 5701 5697 5694 5689 5685 5680 5674 5669 5663 5657 5651 5644 5637 5630 5621 5612 5602 5591 5580 5568 5556 5544 5530 5517 5504 5490 5477 5463
5719 5717 5715 5716 5720 5718 5718 5716 5713 5710 5708 5706 5704 5700 5696 5691 5688 5684 5680 5676 5671 5667 5662 5657 5652 5647 5641 5635 5628 5621 5613 5605 5595 5585 5575 5564 5552 5541 5528 5515 5502 5489 5476 5463
5706 5703 5701 5700 5704 5698 5699 5701 5698 5694 5693 5691 5688 5686 5683 5678 5674 5670 5666 5663 5658 5654 5650 5645 5641 5636 5631 5625 5619 5612 5605 5597 5588 5579 5569 5559 5548 5537 5525 5513 5500 5488 5475 5462